Regional Weather Roundup
Issued by NWS

Home | Current Version | Previous Version | Graphics & Text | Print | Product List | Glossary Off
Versions: 1 2 3 4 5 6 7 8 9 10 11 12 13 14 15 16 17 18 19 20 21 22 23 24 25 26 27 28 29 30 31 32 33 34 35 36 37 38 39 40 41 42 43 44 45 46 47 48 49 50

000
ASUS43 KMKX 271821
RWRWI

WISCONSIN REGIONAL WEATHER ROUNDUP
NATIONAL WEATHER SERVICE MILWAUKEE/SULLIVAN WI
100 PM CDT MON MAR 27 2017

NOTE: "FAIR" INDICATES FEW OR NO CLOUDS BELOW 12,000 FEET WITH NO
SIGNIFICANT WEATHER AND/OR OBSTRUCTIONS TO VISIBILITY.

WIZ001-002-006>008-014>016-023>028-271900-
NORTHWEST WISCONSIN

CITY           SKY/WX    TMP DP  RH WIND       PRES   REMARKS
SUPERIOR ARPT  PTSUNNY   46  35  66 E3        29.99S
6HR MIN TEMP:  31; 6HR MAX TEMP:  46;

ASHLAND        MOSUNNY   47  35  63 NE5       29.98F
6HR MIN TEMP:  32; 6HR MAX TEMP:  47;

HAYWARD        CLOUDY    53  33  46 CALM      29.95F
6HR MIN TEMP:  35; 6HR MAX TEMP:  53;

SIREN          CLOUDY    51  33  51 NE5       29.97S
6HR MIN TEMP:  32; 6HR MAX TEMP:  51;

CUMBERLAND     CLOUDY    46  32  57 NE6       29.96S
RICE LAKE      CLOUDY    44  37  75 CALM      29.98S
6HR MIN TEMP:  34; 6HR MAX TEMP:  44;

CHETEK         DRIZZLE   43  37  79 NW3       29.96F
6HR MIN TEMP:  34; 6HR MAX TEMP:  43;

LADYSMITH      CLOUDY    44  37  76 N5        29.97S
6HR MIN TEMP:  34; 6HR MAX TEMP:  44;

EAU CLAIRE     CLOUDY    41  35  79 NE3       29.96S
6HR MIN TEMP:  37; 6HR MAX TEMP:  42;

MENOMONIE      CLOUDY    43  36  75 CALM      29.97S
6HR MIN TEMP:  37; 6HR MAX TEMP:  43;

NEW RICHMOND   CLOUDY    48  36  64 NE3       29.98S
6HR MIN TEMP:  35; 6HR MAX TEMP:  48;

OSCEOLA        CLOUDY    52  37  57 NW6       30.00S
6HR MIN TEMP:  35; 6HR MAX TEMP:  52;

$$

WIZ003>005-009-010-017-018-271900-
NORTH CENTRAL WISCONSIN

CITY           SKY/WX    TMP DP  RH WIND       PRES   REMARKS
MANITOWISH WTR CLOUDY    40  37  86 N3        29.95R
6HR MIN TEMP:  31; 6HR MAX TEMP:  41;

ARBOR VITAE    CLOUDY    42  36  80 N6        29.94R
6HR MIN TEMP:  33; 6HR MAX TEMP:  42;

WOODRUFF       CLOUDY    42  36  80 N6        29.94R
6HR MIN TEMP:  33; 6HR MAX TEMP:  42;

RHINELANDER    CLOUDY    42  36  79 N5        29.95R
6HR MIN TEMP:  34; 6HR MAX TEMP:  42;

EAGLE RIVER    CLOUDY    40  34  78 NE5       29.94S
6HR MIN TEMP:  32; 6HR MAX TEMP:  40;

LAND O LAKES   CLOUDY    37  34  88 N5        29.97R WCI  33
6HR MIN TEMP:  32; 6HR MAX TEMP:  37;

PHILLIPS       CLOUDY    42  36  77 N5        29.95R
6HR MIN TEMP:  32; 6HR MAX TEMP:  42;

TOMAHAWK       CLOUDY    38  35  88 N5        29.96R WCI  35
6HR MIN TEMP:  32; 6HR MAX TEMP:  38;

MEDFORD        CLOUDY    38  35  90 N3        29.94R
6HR MIN TEMP:  33; 6HR MAX TEMP:  38;

MERRILL        CLOUDY    38  37  94 N5        29.96R WCI  35
6HR MIN TEMP:  33; 6HR MAX TEMP:  38;

$$

WIZ029-030-035-036-043>047-271900-
CENTRAL WISCONSIN

CITY           SKY/WX    TMP DP  RH WIND       PRES   REMARKS
WAUSAU         CLOUDY    40  35  83 NW6       29.94R
6HR MIN TEMP:  35; 6HR MAX TEMP:  40;

MOSINEE        CLOUDY    39  37  93 CALM      29.96R
MARSHFIELD     CLOUDY    40  36  86 CALM      29.94R
6HR MIN TEMP:  36; 6HR MAX TEMP:  40;

STEVENS POINT  CLOUDY    39  38  97 CALM      29.96R
6HR MIN TEMP:  36; 6HR MAX TEMP:  39;

WAUPACA        CLOUDY    45  39  82 CALM      29.96R
6HR MIN TEMP:  40; 6HR MAX TEMP:  45;

WAUTOMA        CLOUDY    44  41  89 CALM      29.96R
6HR MIN TEMP:  39; 6HR MAX TEMP:  44;

WISC RAPIDS    CLOUDY    44  40  85 CALM      29.96R
6HR MIN TEMP:  39; 6HR MAX TEMP:  44;

CAMP DOUGLAS   CLOUDY    45  41  87 CALM      29.95S
$$

WIZ011>013-019>022-031-037>040-048>050-271900-
NORTHEAST WISCONSIN

CITY           SKY/WX    TMP DP  RH WIND       PRES   REMARKS
ANTIGO         CLOUDY    38  36  92 CALM      29.95R
6HR MIN TEMP:  33; 6HR MAX TEMP:  38;

SHAWANO        CLOUDY    42  37  80 CALM      29.96R
6HR MIN TEMP:  38; 6HR MAX TEMP:  43;

OCONTO         CLOUDY    38  33  82 E5        29.97R WCI  35
6HR MIN TEMP:  37; 6HR MAX TEMP:  39;

STURGEON BAY   CLOUDY    37  34  89 N9        29.93S WCI  30
6HR MIN TEMP:  35; 6HR MAX TEMP:  38; 6HR PCP: TRACE;

GREEN BAY      CLOUDY    43  38  82 CALM      29.96S
6HR MIN TEMP:  38; 6HR MAX TEMP:  43;

MANITOWOC      CLOUDY    37  37 100 E6        29.97R FOG     WCI  33
6HR MIN TEMP:  38; 6HR MAX TEMP:  41;

APPLETON       CLOUDY    41  39  93 CALM      29.94R
CLINTONVILLE   CLOUDY    41  37  87 CALM      29.96R
OSHKOSH        CLOUDY    44  39  82 CALM      29.94S
6HR MIN TEMP:  39; 6HR MAX TEMP:  44;

$$

WIZ032>034-041-042-053>061-271900-
SOUTHWEST WISCONSIN

CITY           SKY/WX    TMP DP  RH WIND       PRES   REMARKS
LA CROSSE      CLOUDY    45  42  89 W5        29.96R FOG
6HR MIN TEMP:  41; 6HR MAX TEMP:  45; 6HR PCP: TRACE;

SPARTA         CLOUDY    46  40  82 CALM      29.96R
6HR MIN TEMP:  38; 6HR MAX TEMP:  46;

VIROQUA        CLOUDY    44  44  99 CALM      29.95R
6HR MIN TEMP:  39; 6HR MAX TEMP:  44;

BOSCOBEL       CLOUDY    47  42  83 CALM      29.96R HAZE
6HR MIN TEMP:  43; 6HR MAX TEMP:  48;

PRAIRIE DU CHI CLOUDY    44  43  95 NW3       29.96R FOG
6HR MIN TEMP:  41; 6HR MAX TEMP:  45;

PLATTEVILLE    CLOUDY    47  45  93 CALM      29.95R
6HR MIN TEMP:  41; 6HR MAX TEMP:  47;

$$

WIZ056-057-062-063-064-067-068-271900-
SOUTH CENTRAL WISCONSIN

CITY           SKY/WX    TMP DP  RH WIND       PRES   REMARKS
REEDSBURG      CLOUDY    43  43 100 CALM      29.96R FOG
6HR MIN TEMP:  40; 6HR MAX TEMP:  44;

BARABOO/DELLS  CLOUDY    44  41  90 NW5       29.95R FOG
6HR MIN TEMP:  39; 6HR MAX TEMP:  44;

LONE ROCK      CLOUDY    47  41  80 W5        29.96R
6HR MIN TEMP:  42; 6HR MAX TEMP:  48;

MINERAL POINT  CLOUDY    46  45  93 CALM      29.94R
MADISON        CLOUDY    46  41  82 CALM      29.94R
6HR MIN TEMP:  41; 6HR MAX TEMP:  46;

MIDDLETON      CLOUDY    46  42  86 CALM      29.95R
6HR MIN TEMP:  42; 6HR MAX TEMP:  47;

WATERTOWN      CLOUDY    46  43  88 CALM      29.93S
MONROE         CLOUDY    48  43  81 NE5       29.93S
JANESVILLE     CLOUDY    48  43  81 E6        29.93S
$$

WIZ051-052-058>065-066-070>072-271900-
SOUTHEAST WISCONSIN

CITY           SKY/WX    TMP DP  RH WIND       PRES   REMARKS
MILWAUKEE      CLOUDY    45  39  79 E6        29.95S
6HR MIN TEMP:  42; 6HR MAX TEMP:  45; 6HR PCP: TRACE;

WAUKESHA       CLOUDY    45  39  81 CALM      29.95S
MILWAUKEE/TIMM CLOUDY    45  37  76 E6        29.95S
RACINE         CLOUDY    44  39  82 E8        29.96F
6HR MIN TEMP:  42; 6HR MAX TEMP:  45;

KENOSHA        CLOUDY    45  40  82 E7        29.95S
6HR MIN TEMP:  43; 6HR MAX TEMP:  47;

FOND DU LAC    CLOUDY    45  39  79 CALM      29.94F
6HR MIN TEMP:  39; 6HR MAX TEMP:  45;

SHEBOYGAN      CLOUDY    43  38  82 SE6       29.94F
6HR MIN TEMP:  38; 6HR MAX TEMP:  43;

WEST BEND      CLOUDY    45  41  87 CALM      29.94F
JUNEAU         CLOUDY    45  40  84 CALM      29.95S
6HR MIN TEMP:  38; 6HR MAX TEMP:  45;

$$

LSZ147-162-271900-
LAKE SUPERIOR

STATION/POSITION TIME  TEMP    WIND        PRES    WAVE
                       AIR SEA DIR/SP/G            HT/PER
                 (UTC) (F)     (DEG/KT/KT) (MB)    (FT/S)
DEVILS ISLAND    1800   34     240/  7/  8 1016.6R
PORT WING        1730   36     290/  7/  9 1015.9R
SAXON HARBOR     1740   38      50/  3/  3 1015.6S
$$

LMZ867-665-643>646-271900-
LAKE MICHIGAN

STATION/POSITION TIME  TEMP    WIND        PRES    WAVE
                       AIR SEA DIR/SP/G            HT/PER
                 (UTC) (F)     (DEG/KT/KT) (MB)    (FT/S)
CHAMBERS ISLAND  1740   38      10/  3/  5 1014.6R
NORTHPORT PIER   1740   36     320/  7/  9 1014.9R
SISTER BAY       1706   38     340/  6/  7   N/A
KEWAUNEE LAKESHO 1754   36     17



USA.gov is the U.S. government's official web portal to all federal, state and local government web resources and services.